Terug naar catalogus

STARLINK-4368

ActiefCommunicatieSSO
NORAD 53234·PAYLOAD·🇺🇸 United States

Gelanceerd Jul 22, 2022 vanaf Vandenberg Space Force Base

Loading…

Volgende Passages (komende 24 uur)

TLE

VersSource: CelesTrak SupGP

Epoch: Sep 15, 2026, 02:03 UTC

1 53234C 22084AX  26258.08590278  .00057029  00000+0  15824-2 0  2587
2 53234  97.4813 322.6761 0001196 108.8958 267.2936 15.36940296    15

Volg STARLINK-4368 in realtime met AllMySat

Download on the App Store